Simultaneous Nadir Overpasses (SNOs) Predictions

Prediction of SNOs between LANDSAT-8 and METOP-A Satellite Orbit:

Table of predicted SNOs for the next 14.0 days since TLE Epoch: 2/2/2017
Index Date (LANDSAT-8) Time (LANDSAT-8) Lat,Lon (LANDSAT-8) SZA (LANDSAT-8 ) Date (METOP-A) Time (METOP-A) Lat,Lon (METOP-A) SZA (METOP-A ) Distance(km) Time Diff (sec)
1 02/05/2017 16:10:33 81.13, -22.85 98.48 02/05/2017 16:09:29 81.13, -22.91 98.44 1.23 64
2 02/05/2017 16:59:59 -81.15, 145.08 81.50 02/05/2017 17:00:08 -81.15, 145.00 81.51 1.48 9
3 02/08/2017 11:44:47 81.12, 43.40 97.57 02/08/2017 11:43:51 81.12, 43.36 97.55 0.59 56
4 02/08/2017 12:34:13 -81.14,-148.65 82.40 02/08/2017 12:34:30 -81.14,-148.71 82.40 1.04 17
5 02/11/2017 07:19:00 81.13, 109.97 96.68 02/11/2017 07:18:12 81.13, 110.01 96.66 0.64 48
6
